• In Spain
  • List of Countries
  • For 7 days
  • Water Temperature
  • Satellite Maps
  • Weather Map
  • Weather Widgets
  • user-avatar
    Login

    Hourly Weather Djelfa

    Today, 23 June, Saturday

    Time Temperature Precipitation Wind Pressure Humidity
    00:00 +28°C° 0.1 mm 2 mps 668 mmHg 28%
    01:00 +27°C° 0.1 mm 2 mps 668 mmHg 31%
    02:00 +26°C° 0.1 mm 2 mps 667 mmHg 35%
    03:00 +26°C° 0.1 mm 2 mps 667 mmHg 39%
    04:00 +26°C° 0 mm 2 mps 667 mmHg 38%
    05:00 +26°C° 0 mm 2 mps 667 mmHg 37%
    06:00 +26°C° 0 mm 2 mps 667 mmHg 36%
    07:00 +27°C° 0 mm 1 mps 668 mmHg 32%
    08:00 +29°C° 0 mm 1 mps 668 mmHg 28%
    09:00 +30°C° 0 mm 1 mps 668 mmHg 25%
    10:00 +31°C° 0 mm 2 mps 668 mmHg 22%
    11:00 +32°C° 0 mm 2 mps 669 mmHg 20%
    12:00 +34°C° 0 mm 3 mps 669 mmHg 18%
    13:00 +35°C° 0 mm 4 mps 668 mmHg 17%
    14:00 +35°C° 0 mm 5 mps 668 mmHg 16%
    15:00 +36°C° 0 mm 6 mps 668 mmHg 15%
    16:00 +35°C° 0.1 mm 6 mps 668 mmHg 15%
    17:00 +35°C° 0.1 mm 6 mps 668 mmHg 15%
    18:00 +34°C° 0.1 mm 6 mps 668 mmHg 16%
    19:00 +33°C° 0.3 mm 5 mps 668 mmHg 18%
    20:00 +30°C° 0.3 mm 4 mps 668 mmHg 20%
    21:00 +29°C° 0.3 mm 2 mps 668 mmHg 23%
    22:00 +29°C° 0.1 mm 2 mps 668 mmHg 24%
    23:00 +28°C° 0.1 mm 2 mps 668 mmHg 26%

    Tomorrow, 24 June, Sunday

    Time Temperature Precipitation Wind Pressure Humidity
    00:00 +27°C° 0.1 mm 2 mps 668 mmHg 28%
    01:00 +27°C° 0 mm 2 mps 668 mmHg 29%
    02:00 +26°C° 0 mm 2 mps 667 mmHg 30%
    03:00 +26°C° 0 mm 2 mps 667 mmHg 31%
    04:00 +26°C° 0 mm 2 mps 667 mmHg 31%
    05:00 +26°C° 0 mm 1 mps 667 mmHg 31%
    06:00 +26°C° 0 mm 1 mps 667 mmHg 31%
    07:00 +28°C° 0 mm 1 mps 668 mmHg 28%
    08:00 +29°C° 0 mm 1 mps 668 mmHg 25%
    09:00 +31°C° 0 mm 1 mps 668 mmHg 21%
    10:00 +32°C° 0 mm 2 mps 668 mmHg 19%
    11:00 +34°C° 0 mm 3 mps 669 mmHg 17%
    12:00 +35°C° 0 mm 3 mps 669 mmHg 15%
    13:00 +36°C° 0 mm 4 mps 668 mmHg 14%
    14:00 +37°C° 0 mm 5 mps 668 mmHg 13%
    15:00 +37°C° 0 mm 5 mps 667 mmHg 12%
    16:00 +37°C° 0 mm 5 mps 667 mmHg 13%
    17:00 +36°C° 0 mm 6 mps 667 mmHg 13%
    18:00 +36°C° 0 mm 6 mps 667 mmHg 14%
    19:00 +35°C° 0.1 mm 5 mps 667 mmHg 16%
    20:00 +34°C° 0.1 mm 4 mps 667 mmHg 19%
    21:00 +32°C° 0.1 mm 4 mps 667 mmHg 21%
    22:00 +30°C° 0 mm 3 mps 667 mmHg 24%
    23:00 +29°C° 0 mm 3 mps 667 mmHg 27%

    Day after tomorrow, 25 June, Monday

    Time Temperature Precipitation Wind Pressure Humidity
    00:00 +29°C° 0 mm 2 mps 666 mmHg 30%
    01:00 +28°C° 0 mm 2 mps 666 mmHg 32%
    02:00 +28°C° 0 mm 2 mps 666 mmHg 33%
    03:00 +27°C° 0 mm 2 mps 666 mmHg 35%
    04:00 +27°C° 0 mm 2 mps 666 mmHg 34%
    05:00 +27°C° 0 mm 2 mps 666 mmHg 34%
    06:00 +27°C° 0 mm 1 mps 666 mmHg 33%
    07:00 +29°C° 0 mm 2 mps 667 mmHg 29%
    08:00 +30°C° 0 mm 2 mps 667 mmHg 24%
    09:00 +31°C° 0 mm 2 mps 668 mmHg 20%
    10:00 +33°C° 0 mm 3 mps 668 mmHg 18%
    11:00 +35°C° 0 mm 3 mps 668 mmHg 16%
    12:00 +36°C° 0 mm 4 mps 668 mmHg 14%
    13:00 +36°C° 0 mm 5 mps 668 mmHg 14%
    14:00 +37°C° 0 mm 5 mps 668 mmHg 13%
    15:00 +38°C° 0 mm 6 mps 668 mmHg 13%
    16:00 +36°C° 0 mm 6 mps 668 mmHg 14%
    17:00 +36°C° 0 mm 7 mps 667 mmHg 15%
    18:00 +35°C° 0 mm 7 mps 667 mmHg 16%
    19:00 +34°C° 0 mm 7 mps 667 mmHg 19%
    20:00 +32°C° 0 mm 6 mps 668 mmHg 21%
    21:00 +30°C° 0 mm 6 mps 668 mmHg 23%
    22:00 +29°C° 0 mm 5 mps 668 mmHg 25%
    23:00 +28°C° 0 mm 3 mps 667 mmHg 27%

    26 June, Tuesday

    Time Temperature Precipitation Wind Pressure Humidity
    00:00 +27°C° 0 mm 2 mps 667 mmHg 29%
    01:00 +26°C° 0 mm 2 mps 667 mmHg 31%
    02:00 +26°C° 0 mm 1 mps 667 mmHg 32%
    03:00 +25°C° 0 mm 1 mps 667 mmHg 34%
    04:00 +25°C° 0 mm 1 mps 667 mmHg 33%
    05:00 +25°C° 0 mm 1 mps 667 mmHg 32%
    06:00 +26°C° 0 mm 1 mps 667 mmHg 31%
    07:00 +27°C° 0 mm 1 mps 668 mmHg 28%
    08:00 +28°C° 0 mm 2 mps 668 mmHg 26%
    09:00 +29°C° 0 mm 2 mps 668 mmHg 23%
    10:00 +30°C° 0 mm 3 mps 668 mmHg 21%
    11:00 +33°C° 0 mm 3 mps 668 mmHg 20%
    12:00 +34°C° 0 mm 4 mps 668 mmHg 18%
    13:00 +34°C° 0 mm 5 mps 668 mmHg 17%
    14:00 +35°C° 0 mm 5 mps 668 mmHg 16%
    15:00 +36°C° 0 mm 6 mps 668 mmHg 15%
    16:00 +35°C° 0 mm 6 mps 667 mmHg 16%
    17:00 +34°C° 0 mm 6 mps 667 mmHg 17%
    18:00 +34°C° 0 mm 6 mps 667 mmHg 18%
    19:00 +33°C° 0 mm 6 mps 667 mmHg 21%
    20:00 +30°C° 0 mm 6 mps 667 mmHg 23%
    21:00 +29°C° 0 mm 6 mps 667 mmHg 26%
    22:00 +28°C° 0 mm 4 mps 667 mmHg 27%
    23:00 +27°C° 0 mm 3 mps 667 mmHg 29%

    27 June, Wednesday

    Time Temperature Precipitation Wind Pressure Humidity
    00:00 +26°C° 0 mm 2 mps 666 mmHg 31%
    01:00 +26°C° 0 mm 2 mps 666 mmHg 33%
    02:00 +25°C° 0 mm 1 mps 666 mmHg 34%
    03:00 +24°C° 0 mm 1 mps 666 mmHg 36%
    04:00 +25°C° 0 mm 1 mps 666 mmHg 35%
    05:00 +25°C° 0 mm 1 mps 666 mmHg 34%
    06:00 +25°C° 0 mm 1 mps 667 mmHg 33%
    07:00 +26°C° 0 mm 1 mps 667 mmHg 30%
    08:00 +27°C° 0 mm 1 mps 667 mmHg 28%
    09:00 +28°C° 0 mm 1 mps 667 mmHg 26%
    10:00 +30°C° 0 mm 2 mps 667 mmHg 24%
    11:00 +31°C° 0 mm 2 mps 667 mmHg 21%
    12:00 +32°C° 0 mm 2 mps 667 mmHg 19%
    13:00 +33°C° 0.2 mm 3 mps 667 mmHg 18%
    14:00 +34°C° 0.2 mm 3 mps 667 mmHg 17%
    15:00 +34°C° 0.2 mm 3 mps 667 mmHg 16%
    16:00 +34°C° 0.1 mm 3 mps 667 mmHg 17%
    17:00 +33°C° 0.1 mm 3 mps 667 mmHg 17%
    18:00 +33°C° 0.1 mm 4 mps 666 mmHg 18%
    19:00 +31°C° 0.3 mm 3 mps 667 mmHg 20%
    20:00 +30°C° 0.3 mm 3 mps 667 mmHg 23%
    21:00 +29°C° 0.3 mm 3 mps 667 mmHg 26%
    22:00 +28°C° 0.3 mm 3 mps 667 mmHg 28%
    23:00 +28°C° 0.3 mm 3 mps 666 mmHg 30%

    28 June, Thursday

    Time Temperature Precipitation Wind Pressure Humidity
    00:00 +27°C° 0.3 mm 3 mps 666 mmHg 32%
    01:00 +27°C° 0.2 mm 3 mps 666 mmHg 33%
    02:00 +26°C° 0.2 mm 2 mps 665 mmHg 33%
    03:00 +26°C° 0.2 mm 2 mps 665 mmHg 34%
    04:00 +26°C° 0 mm 2 mps 666 mmHg 33%
    05:00 +26°C° 0 mm 2 mps 666 mmHg 32%
    06:00 +26°C° 0 mm 3 mps 666 mmHg 31%
    07:00 +27°C° 0 mm 3 mps 666 mmHg 29%
    08:00 +28°C° 0 mm 4 mps 666 mmHg 27%
    09:00 +30°C° 0 mm 5 mps 667 mmHg 25%
    10:00 +32°C° 0 mm 5 mps 667 mmHg 23%
    11:00 +33°C° 0 mm 5 mps 667 mmHg 22%
    12:00 +34°C° 0 mm 6 mps 667 mmHg 20%
    13:00 +34°C° 0 mm 6 mps 666 mmHg 19%
    14:00 +35°C° 0 mm 6 mps 666 mmHg 18%
    15:00 +35°C° 0 mm 6 mps 666 mmHg 17%
    16:00 +35°C° 0 mm 6 mps 666 mmHg 17%
    17:00 +35°C° 0 mm 7 mps 666 mmHg 18%
    18:00 +34°C° 0 mm 7 mps 665 mmHg 18%
    19:00 +33°C° 0 mm 8 mps 665 mmHg 19%
    20:00 +32°C° 0 mm 9 mps 665 mmHg 21%
    21:00 +31°C° 0 mm 10 mps 665 mmHg 22%
    22:00 +29°C° 0 mm 10 mps 665 mmHg 23%
    23:00 +28°C° 0 mm 10 mps 665 mmHg 24%
    Show more